Lapse_Rate
8.0 7.7 7.4 7.2 7.3 7.2 7.1 7.1 7.0 6.9 6.8 6.9 7.0 7.2 7.2 7.2 7.3 7.0 6.8 6.8 6.7 6.7 6.6 6.4 6.2 6.2 6.4 6.5 6.6 6.5 6.6 6.6 6.6
8.6 8.5 8.1 7.3 7.3 7.3 7.0 6.9 6.9 7.0 6.8 6.7 6.8 6.8 6.9 7.1 7.2 7.1 7.0 6.8 6.7 6.6 6.6 6.4 6.3 6.2 6.2 6.3 6.3 6.5 6.7 6.6 6.7
8.7 8.8 8.5 7.9 7.5 7.4 7.3 7.1 7.1 7.0 7.0 7.1 7.1 6.9 7.0 7.1 7.2 7.1 7.0 6.9 6.9 6.8 6.7 6.7 6.5 6.4 6.2 6.3 6.2 6.2 6.4 6.7 6.8
9.0 8.7 8.7 8.3 8.1 7.5 7.5 7.4 7.3 7.2 7.1 7.1 7.1 7.1 7.2 7.1 7.2 7.2 7.1 7.1 7.0 6.9 6.9 6.8 6.6 6.6 6.6 6.6 6.8 6.9 6.8 6.8 6.9
9.3 9.0 8.7 8.4 8.3 8.0 7.6 7.5 7.3 7.2 7.1 7.2 7.2 7.2 7.2 7.3 7.3 7.2 7.2 7.2 7.1 7.0 6.9 6.9 6.8 6.8 6.8 6.7 6.8 6.9 7.0 7.2 7.2
9.2 9.3 9.1 8.6 8.3 8.4 8.2 7.8 7.6 7.6 7.5 7.3 7.3 7.3 7.3 7.3 7.3 7.2 7.1 7.0 6.9 7.0 7.0 6.9 6.9 6.9 7.0 7.0 7.0 7.0 7.3 7.3 7.3
9.3 9.3 9.1 9.1 8.7 8.8 8.6 8.5 8.1 7.9 7.8 7.7 7.6 7.5 7.4 7.4 7.3 7.2 7.2 7.0 6.9 7.0 6.9 6.9 6.9 7.2 7.5 7.6 7.6 7.8 8.3 8.8 7.7
9.1 9.2 9.1 9.1 9.1 9.1 9.1 8.9 8.8 8.4 8.4 8.3 8.1 7.8 7.5 7.5 7.3 7.1 7.1 7.1 7.2 7.2 7.2 7.2 7.3 7.7 7.8 7.9 8.1 8.1 8.1 7.5 7.7
8.8 9.0 9.2 9.1 9.2 9.1 9.2 9.3 9.5 9.4 9.0 8.7 8.3 8.1 8.2 7.7 7.5 7.3 7.3 7.3 7.5 7.6 7.6 7.5 7.7 7.8 7.3 7.8 7.2 6.9 7.0 7.8 7.7
8.7 8.9 9.1 9.3 9.3 9.2 9.3 9.4 9.4 9.4 9.3 9.1 8.9 8.7 8.5 8.0 7.7 7.6 7.4 7.7 7.7 7.6 7.4 7.7 7.8 7.8 7.3 6.7 6.4 6.2 6.1 6.6 7.3
8.8 8.8 8.9 8.9 9.4 9.4 9.4 9.4 9.3 9.5 9.5 9.4 9.2 8.9 9.1 8.7 8.1 7.8 7.7 7.7 7.6 7.4 7.3 7.5 7.8 8.0 6.7 6.7 6.3 6.1 6.2 6.0 6.1
8.8 8.9 9.1 9.1 9.2 9.6 9.6 9.6 9.5 9.5 9.5 9.6 9.5 9.4 9.4 9.4 8.6 8.0 7.9 7.8 7.7 7.6 7.7 7.5 7.7 8.4 7.5 6.9 6.7 6.1 6.0 5.4 5.2
8.7 8.7 8.8 9.1 9.3 9.3 9.4 9.5 9.5 9.4 9.4 9.3 9.4 9.5 9.5 9.2 8.9 8.6 8.0 7.8 7.8 7.5 7.5 7.4 7.0 7.2 6.8 6.8 6.5 6.4 5.6 5.2 5.1
8.3 8.6 8.8 9.0 9.2 9.2 9.3 9.4 9.5 9.5 9.4 9.5 9.3 9.2 9.7 9.2 8.5 8.4 8.0 7.5 6.9 7.1 6.3 5.5 6.6 7.3 7.1 6.7 6.5 6.1 5.5 5.4 5.3
7.7 8.0 8.5 8.8 9.0 9.2 9.3 9.4 9.6 9.6 9.5 9.5 9.4 9.1 9.3 9.1 8.8 8.4 7.9 7.9 8.0 7.6 6.7 6.6 7.1 7.1 6.9 6.6 6.3 6.0 5.9 5.7 5.3
7.3 7.5 7.8 8.4 8.8 9.2 9.3 9.3 9.4 9.5 9.5 9.6 9.6 9.3 8.9 9.0 8.7 7.9 7.6 8.0 7.7 7.7 6.9 6.6 7.0 7.0 6.6 6.1 6.0 5.9 5.8 5.6 5.6
6.8 7.2 7.4 7.6 8.2 8.9 9.3 9.2 9.1 9.4 9.2 9.2 9.2 8.7 8.5 8.5 8.2 7.6 7.6 8.0 7.6 7.2 6.3 6.7 6.6 6.4 6.0 5.7 5.6 5.4 5.4 5.5 5.7
6.4 6.7 7.2 7.2 7.8 8.6 8.9 9.0 9.0 9.2 9.2 8.7 8.2 8.4 8.3 8.1 7.7 7.5 7.6 7.5 7.3 6.8 6.6 6.3 6.2 5.8 5.7 5.5 5.4 5.5 5.6 5.6 5.7
6.1 6.8 7.2 7.3 7.9 8.5 8.7 8.8 8.6 8.4 8.6 8.3 7.5 7.9 7.5 7.3 7.4 7.2 7.1 6.9 6.7 6.6 6.7 6.7 6.3 5.7 5.5 5.5 5.6 5.7 5.6 5.8 6.1
6.3 7.0 7.2 7.3 7.7 7.8 8.4 8.3 7.8 7.4 7.7 7.2 7.1 6.9 6.9 6.8 6.3 6.7 6.7 7.0 7.1 6.9 6.1 6.2 5.8 5.5 5.6 5.6 5.7 5.8 6.1 6.2 6.0
Wind_Speed
19 19 17 18 20 19 18 20 20 19 17 16 16 16 17 15 15 11 11 11 9 8 8 7 5 4 6 7 6 4 4 5 6
15 19 18 19 18 18 18 19 21 20 18 17 17 18 15 15 14 14 12 12 10 9 9 8 6 6 6 8 6 5 4 5 6
11 15 17 17 16 18 18 20 19 20 20 19 19 19 16 15 16 15 14 12 13 11 10 9 8 8 7 8 6 6 7 5 5
10 14 16 17 17 18 20 18 18 21 20 20 18 18 17 16 15 16 15 14 13 12 12 11 10 10 9 9 8 7 7 6 6
6 13 17 18 17 16 17 17 19 18 18 19 20 17 15 17 15 14 16 15 15 14 14 13 11 10 9 8 7 6 7 7 6
9 11 15 17 18 17 16 17 16 16 17 19 19 17 18 17 17 16 17 17 16 15 14 14 13 11 10 9 8 7 6 5 5
14 9 12 15 17 19 15 16 16 16 17 17 18 18 18 18 18 19 17 16 15 15 14 12 12 12 12 11 11 10 9 7 4
16 15 8 9 14 13 12 13 14 15 17 16 16 16 17 17 17 16 15 14 14 13 12 10 10 12 11 10 9 7 8 5 7
16 14 15 13 11 14 14 15 16 16 16 16 17 17 17 15 14 14 15 14 14 12 10 11 11 7 6 8 7 8 12 11 7
13 18 18 16 13 14 15 16 14 17 16 16 17 16 16 15 15 15 15 13 13 13 13 11 9 9 10 7 4 5 7 7 6
18 20 19 18 16 16 13 15 17 14 15 15 16 16 17 17 16 15 14 14 15 14 12 12 12 8 5 3 2 3 6 6 4
20 22 21 18 18 19 15 14 12 15 15 16 17 18 17 17 16 15 16 15 15 13 13 12 4 6 9 6 3 3 1 1 1
24 22 20 21 23 22 19 12 13 16 17 18 17 16 15 11 12 15 15 12 8 8 4 9 6 6 8 7 6 10 4 3 2
21 21 24 22 22 19 18 11 15 16 16 19 14 11 14 15 16 16 14 14 9 7 5 3 5 6 7 10 7 9 11 9 3
23 22 24 24 19 16 12 8 13 15 12 10 15 17 16 18 21 15 13 17 13 12 9 5 7 8 7 7 8 8 10 11 11
21 21 18 17 15 12 6 7 10 10 11 15 17 18 16 17 14 13 9 13 13 10 8 7 8 6 6 5 5 5 7 11 9
18 18 16 12 10 5 1 3 6 11 14 16 18 18 18 17 17 14 13 11 10 9 8 7 5 5 6 5 5 4 4 3 3
17 17 13 4 2 4 5 9 11 10 12 15 16 19 17 17 14 15 13 13 9 9 10 7 7 6 5 4 4 5 5 5 4
14 14 6 5 6 7 8 12 13 12 15 17 19 17 13 10 12 12 13 14 14 21 18 20 17 14 7 7 10 6 6 8 7
10 10 4 7 9 9 10 14 16 16 18 17 18 16 12 9 7 10 11 11 12 12 9 14 12 10 12 14 9 8 8 8 6
Wind_Direction
211 207 207 205 208 204 200 199 199 199 198 206 202 204 205 205 209 215 221 223 228 234 238 242 255 262 274 266 262 265 268 272 278
205 201 198 205 209 201 199 200 202 198 198 206 203 206 205 208 210 214 218 219 220 231 238 246 253 256 266 263 265 261 265 269 268
216 207 200 204 206 204 204 205 203 204 203 201 202 206 205 207 208 208 215 218 221 223 229 231 235 237 243 259 259 266 270 264 262
219 212 217 211 201 206 208 202 200 203 203 204 204 205 206 207 208 207 209 217 219 220 226 225 225 231 241 240 247 254 245 239 274
256 225 213 212 215 206 198 198 199 199 200 203 207 204 199 205 203 203 210 217 217 216 220 220 220 221 225 239 255 254 253 280 285
336 257 225 217 209 213 205 199 198 196 197 206 206 200 203 206 205 204 213 216 217 213 216 221 222 220 224 240 246 244 247 265 281
350 325 261 224 218 214 207 206 198 196 199 204 203 198 203 203 204 207 210 213 212 212 212 216 219 219 222 222 223 225 223 181 205
347 3 347 246 237 231 210 205 201 200 206 199 197 194 198 199 204 207 205 203 204 205 205 209 211 214 215 219 221 218 212 196 166
342 2 4 351 297 251 231 219 206 199 200 197 191 194 196 193 191 192 197 194 191 187 186 193 206 209 215 214 228 194 201 166 159
350 340 336 330 322 305 264 232 214 213 201 185 193 192 190 190 189 192 194 182 174 172 180 176 166 183 192 200 209 193 176 154 153
340 333 327 321 317 307 299 263 229 205 195 195 190 194 191 187 188 188 175 167 165 170 168 166 179 165 131 126 219 173 153 158 156
334 324 317 307 311 303 293 268 214 191 182 189 193 192 193 191 178 171 159 160 176 167 168 173 120 121 131 150 148 187 63 93 188
322 318 316 315 312 305 296 272 210 191 190 183 199 200 181 171 161 146 150 134 135 148 132 126 140 131 134 119 118 30 355 243 237
315 312 315 315 309 299 291 266 212 201 191 199 177 156 149 137 145 140 125 102 61 45 17 55 124 117 104 88 76 56 39 24 248
315 316 321 322 311 304 293 233 206 199 194 155 141 139 144 145 143 151 160 126 128 133 138 190 146 136 118 98 90 63 62 55 49
311 314 318 321 313 301 278 225 207 181 138 140 133 133 140 137 130 124 129 111 127 110 155 158 162 150 130 110 98 95 73 55 30
307 307 314 320 304 280 12 124 128 136 143 144 138 130 126 121 116 112 111 103 103 123 150 138 127 116 108 109 102 73 36 11 356
295 303 305 357 67 126 115 119 112 125 126 128 123 119 114 114 109 107 95 73 68 91 54 68 107 97 99 112 106 66 43 20 16
288 287 265 128 127 115 104 100 96 107 113 115 110 106 112 114 115 111 105 102 90 58 69 66 62 48 70 91 90 97 65 56 55
298 263 194 106 104 107 110 105 106 106 106 100 100 100 96 91 95 110 118 110 107 109 78 79 73 67 63 60 75 68 57 57 61